Satellite-Ground Cal/Val Region Overpasses Predictions

Prediction of Satellite NPP Overpassing Cal/Val Region: PacNW

Region Location: (Latitude: 10.00, Longitude: 139.50) to (Latitude: 22.70, Longitude: 165.60).

Table of predicted overpasses for the next 14.0 days since TLE Epoch: 5/23/2020
Interval Starting Time Starting Location Ending Time Ending Location
1 05/23/2020 02:09:57 ( 19.57, 165.59) 05/23/2020 02:10:50 ( 22.68, 164.82)
2 05/23/2020 03:48:44 ( 10.01, 142.46) 05/23/2020 03:52:16 ( 22.45, 139.51)
3 05/23/2020 14:39:08 ( 22.65, 165.07) 05/23/2020 14:42:43 ( 10.03, 162.07)
4 05/23/2020 16:20:38 ( 22.65, 139.69) 05/23/2020 16:20:51 ( 21.89, 139.50)
5 05/24/2020 03:29:43 ( 10.04, 147.22) 05/24/2020 03:33:18 ( 22.66, 144.21)
6 05/24/2020 16:01:35 ( 22.67, 144.46) 05/24/2020 16:05:10 ( 10.05, 141.45)
7 05/25/2020 03:10:40 ( 10.02, 151.98) 05/25/2020 03:14:16 ( 22.70, 148.96)
8 05/25/2020 15:42:33 ( 22.70, 149.22) 05/25/2020 15:46:09 ( 10.02, 146.21)
9 05/26/2020 02:51:39 ( 10.05, 156.73) 05/26/2020 02:55:14 ( 22.68, 153.73)
10 05/26/2020 15:23:31 ( 22.66, 153.97) 05/26/2020 15:27:06 ( 10.04, 150.97)
11 05/27/2020 02:32:36 ( 10.03, 161.50) 05/27/2020 02:36:11 ( 22.65, 158.49)
12 05/27/2020 15:04:29 ( 22.68, 158.74) 05/27/2020 15:08:05 ( 10.01, 155.72)
13 05/28/2020 02:14:23 ( 12.89, 165.60) 05/28/2020 02:17:10 ( 22.69, 163.24)
14 05/28/2020 03:55:04 ( 10.01, 140.88) 05/28/2020 03:56:45 ( 15.95, 139.51)
15 05/28/2020 14:45:27 ( 22.65, 163.49) 05/28/2020 14:49:02 ( 10.03, 160.49)
16 05/29/2020 03:36:02 ( 10.05, 145.64) 05/29/2020 03:39:37 ( 22.67, 142.63)
17 05/29/2020 14:29:35 ( 11.52, 165.59) 05/29/2020 14:30:00 ( 10.05, 165.25)
18 05/29/2020 16:07:55 ( 22.66, 142.88) 05/29/2020 16:11:30 ( 10.05, 139.87)
19 05/30/2020 03:17:00 ( 10.03, 150.40) 05/30/2020 03:20:35 ( 22.65, 147.40)
20 05/30/2020 15:48:53 ( 22.69, 147.64) 05/30/2020 15:52:29 ( 10.01, 144.63)
21 05/31/2020 02:57:57 ( 10.01, 155.16) 05/31/2020 03:01:33 ( 22.69, 152.15)
22 05/31/2020 15:29:51 ( 22.65, 152.39) 05/31/2020 15:33:26 ( 10.03, 149.39)
23 06/01/2020 02:38:56 ( 10.04, 159.92) 06/01/2020 02:42:31 ( 22.67, 156.91)
24 06/01/2020 15:10:49 ( 22.67, 157.16) 06/01/2020 15:14:24 ( 10.05, 154.15)
25 06/02/2020 02:19:53 ( 10.02, 164.68) 06/02/2020 02:23:28 ( 22.65, 161.68)
26 06/02/2020 14:51:46 ( 22.69, 161.92) 06/02/2020 14:55:22 ( 10.02, 158.91)
27 06/03/2020 03:42:21 ( 10.01, 144.07) 06/03/2020 03:45:57 ( 22.69, 141.05)
28 06/03/2020 14:34:00 ( 18.26, 165.59) 06/03/2020 14:36:20 ( 10.04, 163.67)
29 06/03/2020 16:14:15 ( 22.65, 141.30) 06/03/2020 16:16:21 ( 15.26, 139.50)
30 06/04/2020 03:23:19 ( 10.05, 148.82) 06/04/2020 03:26:54 ( 22.67, 145.81)
31 06/04/2020 15:55:12 ( 22.67, 146.06) 06/04/2020 15:58:47 ( 10.05, 143.06)
32 06/05/2020 03:04:17 ( 10.03, 153.58) 06/05/2020 03:07:52 ( 22.65, 150.58)


NCC Satellite Cal/Val Overpasses Prediction Service
